Location: Seminole
(32.7190°N, 102.6440°W)
Time: 03:53:40
(UTC-05:00)

Meteor 2-10 - Visible Passes

Search period start: 07 July 2015 00:00
Search period end: 17 July 2015 00:00
Orbit: 739 x 868 km, 81.2° (Epoch: 06 July)

Date Brightness Start Highest point End Pass type
(mag) Time Alt. Az. Time Alt. Az. Time Alt. Az.
07 Jul 5.7 00:14:33 10° NW 00:19:14 26° W 00:20:17 24° WSW visible
07 Jul 5.6 22:07:03 10° NNE 22:11:15 22° ENE 22:13:47 17° ESE visible
07 Jul 5.2 23:48:09 10° NNW 23:53:25 39° W 23:54:50 33° SW visible
08 Jul 6.0 21:42:10 10° NE 21:45:01 15° ENE 21:48:11 10° ESE visible
08 Jul 4.6 23:21:57 10° NNW 23:27:32 59° W 23:29:23 39° SSW visible
09 Jul 4.1 22:55:56 10° N 23:01:38 88° W 23:03:58 37° S visible
10 Jul 4.2 22:30:04 10° N 22:35:40 62° E 22:38:34 28° SSE visible
11 Jul 6.6 00:14:33 10° WNW 00:17:04 13° W 00:19:12 10° WSW visible
11 Jul 4.7 22:04:20 10° N 22:09:39 41° ENE 22:13:12 19° SE visible
11 Jul 6.3 23:47:15 10° NW 23:51:17 20° W 23:54:15 13° SW visible
12 Jul 5.2 21:38:49 10° NNE 21:43:32 28° ENE 21:47:53 12° SE visible
12 Jul 5.8 23:20:38 10° NNW 23:25:28 29° W 23:28:55 15° SW visible
13 Jul 5.1 22:54:17 10° NNW 22:59:37 44° W 23:03:37 16° SSW visible
14 Jul 4.4 22:28:10 10° NNW 22:33:45 67° W 22:38:21 14° S visible
15 Jul 4.1 22:02:11 10° N 22:07:49 81° E 22:13:07 11° S visible
16 Jul 4.4 21:36:23 10° N 21:41:49 53° ENE 21:47:06 10° SSE visible
16 Jul 6.7 23:20:15 10° NW 23:23:18 14° W 23:25:59 10° WSW visible
